Weather History for West Palm Beach, FL

Change the Weather History Date:

Saturday, May 18, 2013

  Actual Average Record
Temperature  
Mean Temperature 78 °F 79 °F  
Max Temperature 84 °F 86 °F 94 °F (1995)
Min Temperature 72 °F 72 °F 55 °F (1917)
Degree Days  
Heating Degree Days 0 0  
Month to date heating degree days 0 0  
Since 1 July heating degree days 164 233  
Cooling Degree Days 13 14  
Month to date cooling degree days 190 222  
Year to date cooling degree days 1017 917  
Growing Degree Days 28 (Base 50)    
Moisture  
Dew Point 70 °F    
Average Humidity 76    
Maximum Humidity 87    
Minimum Humidity 65    
Precipitation  
Precipitation T in 0.15 in 1.79 in (1911)
Month to date precipitation 5.35 1.94  
Year to date precipitation 14.63 16.14  
Snow  
Snow 0.00 in - - ()
Month to date snowfall 0.0  
Since 1 July snowfall 0.0  
Snow Depth 0.00 in    
Sea Level Pressure  
Sea Level Pressure 30.08 in    
Wind  
Wind Speed 9 mph (SE)    
Max Wind Speed 21 mph    
Max Gust Speed 24 mph    
Visibility 10 miles    
Events Rain    
T = Trace of Precipitation, MM = Missing Value Source: NWS Daily Summary

Daily Weather History Graph

Daily Weather History Graph

Search for Another Location

Airport:

Trip Planner

Search our weather history database for the weather conditions in past years. The results will help you decide how hot, cold, wet, or windy it might be!

Date:

Astronomy

May. 18, 2013 Rise Set
Actual Time 6:31 AM EDT 8:02 PM EDT
Civil Twilight 6:06 AM EDT 8:27 PM EDT
Nautical Twilight 5:35 AM EDT 8:58 PM EDT
Astronomical Twilight 5:04 AM EDT 9:29 PM EDT
Moon 1:41 PM EDT (5/18) 1:43 AM EDT (5/18)
Length of Visible Light 14h 21m
Length of Day
13h 31m
First Quarter, 55% of the Moon is Illuminated
May 18
First Quarter
May 25
Full
May 31
Last Quarter
Jun 8
New
Jun 16
First Quarter

Hourly Weather History & Observations

Time (EDT) Temp. Heat Index Dew Point Humidity Pressure Visibility Wind Dir Wind Speed Gust Speed Precip Events Conditions
12:53 AM 75.0 °F - 70.0 °F 84% 30.09 in 10.0 mi SSE 4.6 mph - N/A   Scattered Clouds
1:53 AM 75.9 °F - 70.0 °F 82% 30.07 in 10.0 mi SSW 4.6 mph - 0.00 in Rain Light Rain
2:53 AM 75.0 °F - 70.0 °F 84% 30.06 in 10.0 mi SSW 4.6 mph - 0.00 in   Mostly Cloudy
3:53 AM 73.9 °F - 70.0 °F 87% 30.06 in 10.0 mi Calm Calm - N/A   Mostly Cloudy
4:53 AM 73.0 °F - 70.0 °F 90% 30.06 in 10.0 mi Calm Calm - N/A   Scattered Clouds
5:53 AM 73.0 °F - 70.0 °F 90% 30.06 in 10.0 mi Calm Calm - N/A   Partly Cloudy
6:53 AM 73.9 °F - 70.0 °F 87% 30.08 in 10.0 mi Calm Calm - N/A   Partly Cloudy
7:53 AM 78.1 °F - 71.1 °F 79% 30.09 in 10.0 mi Calm Calm - N/A   Scattered Clouds
8:53 AM 80.1 °F 83.6 °F 71.1 °F 74% 30.11 in 10.0 mi SSE 8.1 mph - N/A   Scattered Clouds
9:44 AM 80.6 °F 84.6 °F 71.6 °F 74% 30.11 in 10.0 mi South 9.2 mph - N/A   Mostly Cloudy
9:53 AM 80.1 °F 83.6 °F 71.1 °F 74% 30.11 in 10.0 mi SE 8.1 mph 16.1 mph N/A   Mostly Cloudy
10:53 AM 81.0 °F 84.1 °F 69.1 °F 67% 30.10 in 10.0 mi ESE 12.7 mph 18.4 mph N/A   Mostly Cloudy
11:53 AM 80.1 °F 83.6 °F 71.1 °F 74% 30.11 in 10.0 mi ESE 13.8 mph - 0.00 in   Mostly Cloudy
12:12 PM 82.4 °F 87.2 °F 71.6 °F 70% 30.10 in 10.0 mi East 17.3 mph 21.9 mph N/A   Mostly Cloudy
12:53 PM 80.1 °F 83.2 °F 70.0 °F 71% 30.10 in 10.0 mi SSE 15.0 mph - N/A   Mostly Cloudy
1:53 PM 82.0 °F 85.5 °F 69.1 °F 65% 30.08 in 10.0 mi SE 12.7 mph - N/A   Mostly Cloudy
2:53 PM 82.9 °F 87.0 °F 70.0 °F 65% 30.07 in 10.0 mi SE 16.1 mph 24.2 mph N/A   Mostly Cloudy
3:53 PM 82.0 °F 85.9 °F 70.0 °F 67% 30.05 in 10.0 mi ESE 17.3 mph - N/A   Mostly Cloudy
4:53 PM 80.1 °F 83.2 °F 70.0 °F 71% 30.05 in 10.0 mi SE 16.1 mph - N/A   Mostly Cloudy
5:53 PM 80.1 °F 82.9 °F 69.1 °F 69% 30.06 in 10.0 mi ESE 13.8 mph - N/A   Mostly Cloudy
6:53 PM 79.0 °F - 69.1 °F 72% 30.05 in 10.0 mi SE 12.7 mph - N/A   Mostly Cloudy
7:53 PM 79.0 °F - 69.1 °F 72% 30.06 in 10.0 mi SE 11.5 mph - N/A   Mostly Cloudy
8:53 PM 78.1 °F - 69.1 °F 74% 30.07 in 10.0 mi ESE 8.1 mph - N/A   Scattered Clouds
9:53 PM 77.0 °F - 68.0 °F 74% 30.08 in 10.0 mi SE 10.4 mph - N/A   Scattered Clouds
10:53 PM 77.0 °F - 68.0 °F 74% 30.09 in 10.0 mi SE 8.1 mph - N/A   Scattered Clouds
11:53 PM 77.0 °F - 68.0 °F 74% 30.09 in 10.0 mi SE 8.1 mph - N/A   Mostly Cloudy